This is the latest recevied weather packets stored in our database for station/object S51FO-6. If no packets are shown the sender has not sent any weather packets the latest 10 day(s).
| Time | Temp. | Humidity | Pressure | Rain* | Wind** | Luminosity | Snow |
|---|---|---|---|---|---|---|---|
| 1788548983 | 8.89° C | 81% | - | 0 mm | - | - | - |
| 1788548385 | 8.89° C | 79% | - | 0 mm | - | - | - |
| 1788547795 | 9.44° C | 80% | - | 0 mm | - | - | - |
| 1788547183 | 10° C | 78% | - | 0 mm | - | - | - |
| 1788546580 | 10.56° C | 80% | - | 0 mm | - | - | - |
| 1788545378 | 11.67° C | 73% | - | 0 mm | - | - | - |
| 1788544178 | 13.33° C | 71% | - | 0 mm | - | - | - |
| 1788543578 | 13.89° C | 68% | - | 0 mm | - | - | - |
| 1788542978 | 15° C | 65% | - | 0 mm | - | - | - |
| 1788542378 | 15.56° C | 63% | - | 0 mm | - | - | - |
| 1788541778 | 16.11° C | 60% | - | 0 mm | - | - | - |
| 1788541178 | 17.22° C | 54% | - | 0 mm | - | - | - |
| 1788540578 | 19.44° C | 48% | - | 0 mm | - | - | - |
| 1788539978 | 18.89° C | 46% | - | 0 mm | - | - | - |
| 1788538782 | 20.56° C | 43% | - | 0 mm | - | - | - |
| 1788537578 | 21.67° C | 40% | - | 0 mm | - | - | - |
| 1788536978 | 22.78° C | 37% | - | 0 mm | - | - | - |
| 1788536378 | 22.78° C | 37% | - | 0 mm | - | - | - |
| 1788535778 | 23.33° C | 38% | - | 0 mm | - | - | - |
| 1788535178 | 23.33° C | 35% | - | 0 mm | - | - | - |
| 1788533978 | 23.89° C | 37% | - | 0 mm | - | - | - |
| 1788533378 | 23.89° C | 33% | - | 0 mm | - | - | - |
| 1788532778 | 23.89° C | 36% | - | 0 mm | - | - | - |
| 1788532178 | 23.89° C | 35% | - | 0 mm | - | - | - |
| 1788531578 | 24.44° C | 33% | - | 0 mm | - | - | - |
* Rain latest hour (hover to see other rain measurements)
** Current wind speed in m/s (hover to see current wind gust speed)